Simultaneous Nadir Overpasses (SNOs) Predictions

Prediction of SNOs between AURA and NPP Satellite Orbit:

Table of predicted SNOs for the next 14.0 days since TLE Epoch: 7/12/2019
Index Date (AURA) Time (AURA) Lat,Lon (AURA) SZA (AURA ) Date (NPP) Time (NPP) Lat,Lon (NPP) SZA (NPP ) Distance(km) Time Diff (sec)
1 07/15/2019 02:52:01 -79.23,-148.02 108.16 07/15/2019 02:51:13 -79.23,-148.04 108.12 0.48 48
2 07/15/2019 03:41:20 79.49, 21.35 71.47 07/15/2019 03:41:50 79.49, 21.27 71.46 1.81 30
3 07/17/2019 19:08:26 -79.36, -31.29 107.91 07/17/2019 19:08:05 -79.36, -31.25 107.90 0.73 21
4 07/17/2019 19:57:46 79.58, 137.84 71.78 07/17/2019 19:58:43 79.58, 137.81 71.74 0.59 57
5 07/20/2019 10:35:30 79.20, -84.09 72.81 07/20/2019 10:34:19 79.21, -84.00 72.84 1.77 71
6 07/20/2019 11:24:50 -79.49, 85.44 107.61 07/20/2019 11:24:56 -79.49, 85.55 107.64 2.45 6
7 07/23/2019 02:51:58 79.21, 31.82 73.32 07/23/2019 02:51:15 79.20, 31.71 73.37 2.55 43
8 07/23/2019 03:41:18 -79.49,-158.64 107.10 07/23/2019 03:41:52 -79.49,-158.71 107.11 1.69 34
9 07/25/2019 19:08:22 79.36, 148.72 73.64 07/25/2019 19:08:06 79.36, 148.73 73.65 0.26 16




NCC Satellite Simultaneous Nadir Overpasses (SNOs) Prediction Service
